Thermal, CA

7:09 AM PDT on April 26, 2017 (GMT -0700)
Desert Resorts Regional

Weather History for KTRM - May, 2013

Change the Weather History Date:

Monday, May 27, 2013

  Actual Average Record
Temperature  
Mean Temperature 84 °F 81 °F  
Max Temperature 98 °F 98 °F 113 °F (1951)
Min Temperature 70 °F 64 °F 57 °F (1998)
Degree Days  
Heating Degree Days 0 0  
Month to date heating degree days 0 0  
Since 1 July heating degree days 1124 1180  
Cooling Degree Days 19 16  
Month to date cooling degree days 408 351  
Year to date cooling degree days 836 607  
Growing Degree Days 33 (Base 50)    
Moisture  
Dew Point 45 °F    
Average Humidity 32    
Maximum Humidity 51    
Minimum Humidity 12    
Precipitation  
Precipitation 0.00 in 0.01 in 0.42 in (1981)
Month to date precipitation 0.00 0.03  
Year to date precipitation 0.44 1.80  
Since 1 July precipitation 2.62  
Snow  
Snow 0.00 in - - ()
Month to date snowfall 0.0  
Year to date snowfall 0.0  
Snow Depth 0.00 in    
Sea Level Pressure  
Sea Level Pressure 29.74 in    
Wind  
Wind Speed 7 mph (NNW)    
Max Wind Speed 18 mph    
Max Gust Speed 24 mph    
Visibility 10 miles    
Events      
T = Trace of Precipitation, MM = Missing Value Source: NWS Daily Summary

Daily Weather History Graph

Daily Weather History Graph

Search for Another Location

Airport or City:

Trip Planner

Search our weather history database for the weather conditions in past years. The results will help you decide how hot, cold, wet, or windy it might be!

Date:

Astronomy

May. 27, 2013 Rise Set
Actual Time 5:37 AM PDT 7:47 PM PDT
Civil Twilight 5:08 AM PDT 8:15 PM PDT
Nautical Twilight 4:34 AM PDT 8:49 PM PDT
Astronomical Twilight 3:57 AM PDT 9:27 PM PDT
Moon 10:33 PM PDT (5/27) 8:17 AM PDT (5/27)
Length of Visible Light 15h 06m
Length of Day
14h 10m
Waning Gibbous, 90% of the Moon is Illuminated
May 27
Waning Gibbous
May 31
Last Quarter
Jun 8
New
Jun 16
First Quarter
Jun 23
Full

Hourly Weather History & Observations

Time (PDT) Temp. Heat Index Dew Point Humidity Pressure Visibility Wind Dir Wind Speed Gust Speed Precip Events Conditions
12:52 AM 75.0 °F - 44.1 °F 33% 29.80 in 10.0 mi West 3.5 mph - N/A   Clear
1:52 AM 73.9 °F - 46.0 °F 37% 29.79 in 10.0 mi WNW 9.2 mph - N/A   Clear
2:52 AM 73.9 °F - 46.9 °F 38% 29.79 in 10.0 mi NW 11.5 mph - N/A   Clear
3:52 AM 73.9 °F - 46.0 °F 37% 29.79 in 10.0 mi NNW 10.4 mph - N/A   Clear
4:52 AM 72.0 °F - 48.0 °F 43% 29.79 in 10.0 mi NW 13.8 mph - N/A   Clear
5:52 AM 70.0 °F - 50.0 °F 49% 29.80 in 10.0 mi NW 11.5 mph - N/A   Clear
6:52 AM 72.0 °F - 50.0 °F 46% 29.81 in 10.0 mi North 9.2 mph - N/A   Clear
7:52 AM 75.0 °F - 50.0 °F 41% 29.81 in 10.0 mi NW 6.9 mph - N/A   Clear
8:52 AM 80.1 °F - 46.9 °F 31% 29.81 in 10.0 mi NNW 9.2 mph - N/A   Clear
9:52 AM 84.0 °F - 44.1 °F 25% 29.80 in 10.0 mi Variable 5.8 mph - N/A   Clear
10:52 AM 86.0 °F - 43.0 °F 22% 29.79 in 10.0 mi West 5.8 mph - N/A   Clear
11:52 AM 89.1 °F - 39.9 °F 18% 29.79 in 10.0 mi East 4.6 mph - N/A   Clear
12:52 PM 91.9 °F - 39.0 °F 16% 29.76 in 10.0 mi Calm Calm - N/A   Clear
1:52 PM 95.0 °F - 37.0 °F 13% 29.74 in 10.0 mi ESE 5.8 mph - N/A   Clear
2:52 PM 96.1 °F - 36.0 °F 12% 29.71 in 10.0 mi East 5.8 mph 16.1 mph N/A   Clear
3:52 PM 95.0 °F - 35.1 °F 12% 29.68 in 10.0 mi NE 4.6 mph - N/A   Clear
4:52 PM 95.0 °F - 36.0 °F 13% 29.66 in 10.0 mi South 5.8 mph - N/A   Clear
5:52 PM 95.0 °F - 36.0 °F 13% 29.65 in 10.0 mi South 3.5 mph - N/A   Clear
6:52 PM 91.9 °F - 39.0 °F 16% 29.65 in 10.0 mi NE 4.6 mph - N/A   Clear
7:52 PM 87.1 °F - 50.0 °F 28% 29.65 in 10.0 mi NNW 20.7 mph 25.3 mph N/A   Clear
8:52 PM 82.9 °F - 52.0 °F 34% 29.65 in 10.0 mi NW 17.3 mph 29.9 mph N/A   Clear
9:52 PM 80.1 °F 79.9 °F 53.1 °F 39% 29.67 in 10.0 mi NNW 17.3 mph 28.8 mph N/A   Clear
10:52 PM 80.1 °F 79.9 °F 53.1 °F 39% 29.68 in 10.0 mi NW 15.0 mph 23.0 mph N/A   Clear
11:52 PM 77.0 °F - 53.1 °F 43% 29.66 in 10.0 mi NNW 17.3 mph 27.6 mph N/A   Clear